Weather Roundup
Issued by NWS Springfield, MO

Home | Current Version | Previous Version | Text Only | Print | Product List | Glossary On
Versions: 1 2 3 4 5 6 7 8 9 10 11 12 13 14 15 16 17 18 19 20 21 22 23 24 25 26 27 28 29 30 31 32 33 34 35 36 37 38 39 40 41 42 43 44 45 46 47 48 49 50
000
NZUS99 KSGF 200757
HRRSGF

HOURLY WEATHER
NATIONAL WEATHER SERVICE SPRINGFIELD MO
200 AM CST FRI JAN 20 2017

......SGF CWA......

CITY           SKY/WX    TMP DP  RH WIND       PRES   REMARKS
SPRINGFIELD    FOG       47  46  97 SE5       29.61S VSB 3/4
JOPLIN         CLOUDY    50  48  93 SE5       29.60F
WEST PLAINS    CLOUDY    49  48  97 SW7       29.66R
ROLLA          CLOUDY    48  48 100 S7        29.60S

......SURROUNDING SGF CWA......

CITY           SKY/WX    TMP DP  RH WIND       PRES   REMARKS
CHANUTE        CLOUDY    49  45  86 SE7       29.57F
PARSONS        CLOUDY    49  47  93 SE3       29.58F
COFFEYVILLE    CLOUDY    48  47  96 E5        29.57F
EMPORIA        FOG       42  42 100 NE3       29.56F VSB 3/4
ROGERS AR      FOG       43  43 100 SE5       29.61S VSB 1/2
HARRISON AR    CLEAR     47  46  97 SE3       29.62S

......KANSAS AND MISSOURI......

CITY           SKY/WX    TMP DP  RH WIND       PRES   REMARKS
KANSAS CTY INT FOG       46  43  89 E3        29.60S VSB 1
SEDALIA        FOG       47  47 100 CALM      29.63R VSB 1/2
ST JOSEPH      CLOUDY    42  42 100 CALM      29.61S FOG
ST LOUIS       FOG       47  45  93 CALM      29.62R VSB 1/4
SPIRIT OF STL  FOG       46  46 100 SW6       29.64R VSB 3/4
WICHITA        CLOUDY    44  44 100 SE7       29.53R FOG
TOPEKA         FOG       45  43  93 E3        29.59S VSB 1/4
OLATHE         FOG       44  44 100 CALM      29.59S VSB 1/2

......TENNESSEE......

CITY           SKY/WX    TMP DP  RH WIND       PRES   REMARKS
MEMPHIS        MOCLDY    55  55 100 SW8       29.71S
NASHVILLE      CLOUDY    57  55  93 SE6       29.72R

......ARKANSAS.......

CITY           SKY/WX    TMP DP  RH WIND       PRES   REMARKS
FAYETTEVILLE   MOCLDY    48  47  96 S8        29.61R
FT SMITH       PTCLDY    44  43  96 NE6       29.62F FOG
LITTLE ROCK    CLOUDY    54  54 100 SW12      29.68S

......OKLAHOMA.......

CITY           SKY/WX    TMP DP  RH WIND       PRES   REMARKS
TULSA          CLOUDY    50  48  93 SE7       29.57S
PONCA CITY     CLOUDY    50  47  89 S8        29.54R
MCALESTER      CLOUDY    53  49  86 S6        29.57F
OKLAHOMA CITY  FOG       46  45  96 SE7       29.51S VSB 1/4

......IOWA............

CITY           SKY/WX    TMP DP  RH WIND       PRES   REMARKS
DES MOINES     NOT AVBL
QUAD CITIES    FOG       38  36  92 NE3       29.62F VSB 1/4

......ILLINOIS........

CITY           SKY/WX    TMP DP  RH WIND       PRES   REMARKS
QUINCY         NOT AVBL
CHICAGO        LGT RAIN  38  37  97 NE10      29.65F FOG     WCI  31



USA.gov is the U.S. government's official web portal to all federal, state and local government web resources and services.